BKPR

Priština International Airport

Prishtina, Kosovo
Issued Wind Visibility Ceiling Temperature Dew Point Humidity Barometer
Dec-10
23:30 UTC
Varies @1 KTS 10,000+ meters   -1° C
30° F
-6° C
21° F
69% 30.06" Hg
1018 hPa
VFR
Dec-10
23:00 UTC
Varies @3 KTS 10,000+ meters   C
32° F
-6° C
21° F
64% 30.03" Hg
1017 hPa
VFR
Dec-10
22:30 UTC
100°
7 KTS
10,000+ meters   -2° C
28° F
-6° C
21° F
74% 30.03" Hg
1017 hPa
VFR
Dec-10
22:00 UTC
140°
5 KTS
10,000+ meters   -1° C
30° F
-6° C
21° F
69% 30.03" Hg
1017 hPa
VFR
Dec-10
21:30 UTC
Varies @3 KTS 10,000+ meters   -1° C
30° F
-6° C
21° F
69% 30.03" Hg
1017 hPa
VFR
Dec-10
21:00 UTC
170°
6 KTS
10,000+ meters   -2° C
28° F
-6° C
21° F
74% 30" Hg
1016 hPa
VFR
Dec-10
20:30 UTC
Varies @3 KTS 10,000+ meters   -2° C
28° F
-6° C
21° F
74% 30" Hg
1016 hPa
VFR
Dec-10
20:00 UTC
190°
6 KTS
10,000+ meters   -2° C
28° F
-6° C
21° F
74% 30" Hg
1016 hPa
VFR
Dec-10
19:30 UTC
190°
9 KTS
10,000+ meters   -1° C
30° F
-6° C
21° F
69% 30" Hg
1016 hPa
VFR
Dec-10
19:00 UTC
190°
9 KTS
10,000+ meters   -2° C
28° F
-6° C
21° F
74% 30" Hg
1016 hPa
VFR
Dec-10
18:30 UTC
180°
5 KTS
10,000+ meters   -2° C
28° F
-6° C
21° F
74% 30" Hg
1016 hPa
VFR
Dec-10
18:00 UTC
170°
5 KTS
10,000+ meters   -2° C
28° F
-6° C
21° F
74% 30" Hg
1016 hPa
VFR
Dec-10
17:30 UTC
170°
8 KTS
10,000+ meters   -2° C
28° F
-6° C
21° F
74% 30" Hg
1016 hPa
VFR
Dec-10
17:00 UTC
180°
9 KTS
10,000+ meters   -1° C
30° F
-6° C
21° F
69% 29.97" Hg
1015 hPa
VFR
Dec-10
16:30 UTC
140°
5 KTS
10,000+ meters   -3° C
27° F
-6° C
21° F
80% 30" Hg
1016 hPa
VFR
Dec-10
16:00 UTC
170°
5 KTS
10,000+ meters   -3° C
27° F
-7° C
19° F
74% 30" Hg
1016 hPa
VFR
Dec-10
15:30 UTC
170°
5 KTS
10,000+ meters   -2° C
28° F
-6° C
21° F
74% 30" Hg
1016 hPa
VFR
Dec-10
15:00 UTC
170°
7 KTS
10,000+ meters   -1° C
30° F
-6° C
21° F
69% 30" Hg
1016 hPa
VFR
Dec-10
14:30 UTC
160°
6 KTS
10,000+ meters   -1° C
30° F
-6° C
21° F
69% 30" Hg
1016 hPa
VFR
Dec-10
14:00 UTC
160°
4 KTS
10,000+ meters   C
32° F
-6° C
21° F
64% 30" Hg
1016 hPa
VFR
Dec-10
13:30 UTC
170°
6 KTS
10,000+ meters   C
32° F
-6° C
21° F
64% 30" Hg
1016 hPa
VFR
Dec-10
13:00 UTC
160°
6 KTS
10,000+ meters   C
32° F
-6° C
21° F
64% 30" Hg
1016 hPa
VFR
Dec-10
12:30 UTC
160°
6 KTS
10,000+ meters   -1° C
30° F
-6° C
21° F
69% 30.03" Hg
1017 hPa
VFR
Dec-10
12:00 UTC
170°
5 KTS
10,000+ meters   -1° C
30° F
-6° C
21° F
69% 30.03" Hg
1017 hPa
VFR
Dec-10
11:30 UTC
170°
4 KTS
10,000+ meters   -1° C
30° F
-5° C
23° F
75% 30.03" Hg
1017 hPa
VFR
Dec-10
11:00 UTC
Varies @3 KTS 10,000+ meters   -1° C
30° F
-5° C
23° F
75% 30.03" Hg
1017 hPa
VFR
Dec-10
10:30 UTC
Varies @2 KTS 10,000+ meters   -1° C
30° F
-5° C
23° F
75% 30.03" Hg
1017 hPa
VFR
Dec-10
10:00 UTC
200°
5 KTS
10,000+ meters   -1° C
30° F
-5° C
23° F
75% 30.06" Hg
1018 hPa
VFR
Dec-10
09:30 UTC
Varies @3 KTS 10,000+ meters   -2° C
28° F
-5° C
23° F
80% 30.06" Hg
1018 hPa
VFR
Dec-10
09:00 UTC
Varies @3 KTS 10,000+ meters   -2° C
28° F
-5° C
23° F
80% 30.06" Hg
1018 hPa
VFR
Dec-10
08:30 UTC
Varies @1 KTS 10,000+ meters   -1° C
30° F
-5° C
23° F
75% 30.03" Hg
1017 hPa
VFR
Dec-10
08:00 UTC
Varies @2 KTS 10,000+ meters   -4° C
25° F
-6° C
21° F
86% 30.03" Hg
1017 hPa
VFR
Dec-10
07:30 UTC
10,000+ meters   -3° C
27° F
-5° C
23° F
86% 30.03" Hg
1017 hPa
VFR
Dec-10
07:00 UTC
Varies @1 KTS 10,000+ meters   -4° C
25° F
-6° C
21° F
86% 30" Hg
1016 hPa
VFR
Dec-10
06:30 UTC
10,000+ meters   -6° C
21° F
-9° C
16° F
80% 30" Hg
1016 hPa
VFR
Dec-10
06:00 UTC
Varies @2 KTS 10,000+ meters   -4° C
25° F
-6° C
21° F
86% 29.97" Hg
1015 hPa
VFR
Dec-10
05:30 UTC
Varies @2 KTS 10,000+ meters   -5° C
23° F
-7° C
19° F
86% 29.97" Hg
1015 hPa
VFR
Dec-10
05:00 UTC
Varies @2 KTS 10,000+ meters   -4° C
25° F
-6° C
21° F
86% 29.94" Hg
1014 hPa
VFR
Dec-10
04:30 UTC
330°
5 KTS
10,000+ meters Broken
5,000'AGL
-2° C
28° F
-4° C
25° F
86% 29.94" Hg
1014 hPa
VFR
Dec-10
04:00 UTC
340°
5 KTS
10,000+ meters Broken
5,000'AGL
-2° C
28° F
-4° C
25° F
86% 29.91" Hg
1013 hPa
VFR
Dec-10
03:30 UTC
Varies @2 KTS 10,000+ meters Broken
5,000'AGL
-2° C
28° F
-4° C
25° F
86% 29.91" Hg
1013 hPa
VFR
Dec-10
03:00 UTC
Varies @3 KTS 10,000+ meters Broken
4,000'AGL
-2° C
28° F
-4° C
25° F
86% 29.88" Hg
1012 hPa
VFR
Dec-10
02:30 UTC
Varies @2 KTS 7,998 meters Broken
2,500'AGL
-2° C
28° F
-4° C
25° F
86% 29.88" Hg
1012 hPa
MVFR
Dec-10
02:00 UTC
320°
4 KTS
499 meters Broken
1,500'AGL
-2° C
28° F
-3° C
27° F
93% 29.88" Hg
1012 hPa
LIFR
Dec-10
01:30 UTC
350°
11 KTS
1,996 meters Broken
2,000'AGL
-2° C
28° F
-3° C
27° F
93% 29.85" Hg
1011 hPa
IFR
Dec-10
01:00 UTC
340°
16 KTS
2,993 meters Broken
2,000'AGL
-2° C
28° F
-3° C
27° F
93% 29.82" Hg
1010 hPa
IFR
Dec-10
00:30 UTC
330°
11 KTS
4,007 meters Broken
2,500'AGL
-1° C
30° F
-3° C
27° F
86% 29.85" Hg
1011 hPa
IFR